Tracking 28237 objects as of 29-Nov-2023
HD Live streaming from Space Station
objects crossing your sky now

CZ-6 R/B

Track CZ-6 R/B now!
10-day predictions


NORAD ID: 49061
Int'l Code: 2021-070C
Perigee: 587.2 km
Apogee: 899.0 km
Inclination: 89.0 °
Period: 99.5 minutes
Semi major axis: 7114 km
RCS: Unknown
Launch date: August 4, 2021
Source: People's Republic of China (PRC)
Launch site: Taiyaun Space Center, China (TSC)

Note: This is a ROCKET BODY
Your satellite tracking list
Your tracking list is empty




NASA's NSSDC Master Catalog

Two Line Element Set (TLE):
1 49061U 21070C   23332.50422534  .00001117  00000-0  22349-3 0  9991
2 49061  89.0323 317.4318 0219128  65.9020 296.4936 14.46854466122292
Source of the keplerian elements: AFSPC